Saint Bonnet de Bellac- Haute Vienne - France
Donnes mto: vendredi, 12/10/2012
Date Horaire Temp. E. Hum. E. P.atmo. Pluie Vent Direction Direction Ensoleilleme Solaire P. de rose Temp au vent Rafales
12/10/2012 00:00 14,6 C 93 % 1008,0 hPa 0,0 mm 5,0 km/h (1 Bft) SO 225 0 min 0 W/m 13,5 C 14,6 C 11,5 km/h (2 Bft)
12/10/2012 00:10 14,6 C 93 % 1008,1 hPa 0,0 mm 4,3 km/h (1 Bft) O 270 0 min 0 W/m 13,5 C 14,6 C 11,9 km/h (2 Bft)
12/10/2012 00:20 14,6 C 93 % 1008,2 hPa 0,0 mm 3,6 km/h (1 Bft) SO 225 0 min 0 W/m 13,5 C 14,6 C 6,1 km/h (2 Bft)
12/10/2012 00:30 14,6 C 93 % 1008,2 hPa 0,0 mm 9,0 km/h (2 Bft) SO 225 0 min 0 W/m 13,5 C 14,6 C 15,1 km/h (3 Bft)
12/10/2012 00:40 14,6 C 93 % 1008,4 hPa 0,0 mm 4,7 km/h (1 Bft) S-SO 202 0 min 0 W/m 13,5 C 14,6 C 12,6 km/h (3 Bft)
12/10/2012 00:50 14,6 C 92 % 1008,4 hPa 0,0 mm 4,3 km/h (1 Bft) O-SO 247 0 min 0 W/m 13,3 C 14,6 C 7,2 km/h (2 Bft)
12/10/2012 01:00 14,5 C 92 % 1008,5 hPa 0,0 mm 5,0 km/h (1 Bft) SO 225 0 min 0 W/m 13,2 C 14,5 C 19,8 km/h (3 Bft)
12/10/2012 01:10 14,4 C 92 % 1008,7 hPa 0,0 mm 2,2 km/h (1 Bft) SO 225 0 min 0 W/m 13,1 C 14,4 C 10,1 km/h (2 Bft)
12/10/2012 01:20 14,3 C 92 % 1008,8 hPa 0,0 mm 2,2 km/h (1 Bft) S-SO 202 0 min 0 W/m 13,0 C 14,3 C 7,2 km/h (2 Bft)
12/10/2012 01:30 14,2 C 91 % 1008,9 hPa 0,0 mm 1,4 km/h (1 Bft) O-NO 292 0 min 0 W/m 12,8 C 14,2 C 3,2 km/h (1 Bft)
12/10/2012 01:40 14,2 C 91 % 1008,9 hPa 0,0 mm 4,3 km/h (1 Bft) SO 225 0 min 0 W/m 12,8 C 14,2 C 9,4 km/h (2 Bft)
12/10/2012 01:50 14,1 C 91 % 1008,9 hPa 0,0 mm 3,2 km/h (1 Bft) S-SO 202 0 min 0 W/m 12,7 C 14,1 C 3,2 km/h (1 Bft)
12/10/2012 02:00 14,0 C 91 % 1009,1 hPa 0,0 mm 4,3 km/h (1 Bft) O-SO 247 0 min 0 W/m 12,6 C 14,0 C 12,2 km/h (2 Bft)
12/10/2012 02:10 13,9 C 91 % 1009,2 hPa 0,0 mm 0,4 km/h (0 Bft) O 270 0 min 0 W/m 12,5 C 13,9 C 0,4 km/h (0 Bft)
12/10/2012 02:20 13,9 C 91 % 1009,3 hPa 0,0 mm 2,2 km/h (1 Bft) O 270 0 min 0 W/m 12,5 C 13,9 C 4,3 km/h (1 Bft)
12/10/2012 02:30 13,8 C 91 % 1009,4 hPa 0,0 mm 2,2 km/h (1 Bft) O-NO 292 0 min 0 W/m 12,4 C 13,8 C 6,1 km/h (2 Bft)
12/10/2012 02:40 13,6 C 91 % 1009,5 hPa 0,0 mm 0,4 km/h (0 Bft) O-SO 247 0 min 0 W/m 12,2 C 13,6 C 3,2 km/h (1 Bft)
12/10/2012 02:50 13,4 C 91 % 1009,7 hPa 0,0 mm 4,0 km/h (1 Bft) SO 225 0 min 0 W/m 12,0 C 13,4 C 6,8 km/h (2 Bft)
12/10/2012 03:02 13,3 C 91 % 1009,7 hPa 0,0 mm 2,2 km/h (1 Bft) O-SO 247 0 min 0 W/m 11,9 C 13,3 C 6,1 km/h (2 Bft)
12/10/2012 03:10 13,2 C 91 % 1009,8 hPa 0,0 mm 4,7 km/h (1 Bft) O-SO 247 0 min 0 W/m 11,8 C 13,2 C 4,7 km/h (1 Bft)
12/10/2012 03:20 13,0 C 91 % 1009,9 hPa 0,0 mm 1,1 km/h (1 Bft) O-SO 247 0 min 0 W/m 11,6 C 13,0 C 3,6 km/h (1 Bft)
12/10/2012 03:30 12,8 C 91 % 1009,9 hPa 0,0 mm 2,5 km/h (1 Bft) S-SO 202 0 min 0 W/m 11,4 C 12,8 C 4,3 km/h (1 Bft)
12/10/2012 03:40 12,6 C 92 % 1009,9 hPa 0,0 mm 3,2 km/h (1 Bft) SO 225 0 min 0 W/m 11,3 C 12,6 C 7,2 km/h (2 Bft)
12/10/2012 03:50 12,6 C 92 % 1009,9 hPa 0,0 mm 0,4 km/h (0 Bft) SO 225 0 min 0 W/m 11,3 C 12,6 C 3,2 km/h (1 Bft)
12/10/2012 04:00 12,6 C 92 % 1010,0 hPa 0,0 mm 5,4 km/h (2 Bft) O 270 0 min 0 W/m 11,3 C 12,6 C 9,7 km/h (2 Bft)
12/10/2012 04:10 12,6 C 92 % 1009,9 hPa 0,0 mm 4,0 km/h (1 Bft) SO 225 0 min 0 W/m 11,3 C 12,6 C 10,4 km/h (2 Bft)
12/10/2012 04:20 12,6 C 92 % 1010,1 hPa 0,0 mm 5,4 km/h (2 Bft) O 270 0 min 0 W/m 11,3 C 12,6 C 10,1 km/h (2 Bft)
12/10/2012 04:30 12,7 C 92 % 1010,2 hPa 0,0 mm 1,1 km/h (1 Bft) O-SO 247 0 min 0 W/m 11,4 C 12,7 C 8,6 km/h (2 Bft)
12/10/2012 04:40 12,8 C 92 % 1010,2 hPa 0,0 mm 6,1 km/h (2 Bft) O 270 0 min 0 W/m 11,5 C 12,8 C 9,7 km/h (2 Bft)
12/10/2012 04:50 12,8 C 92 % 1010,4 hPa 0,0 mm 5,8 km/h (2 Bft) O 270 0 min 0 W/m 11,5 C 12,8 C 8,6 km/h (2 Bft)
12/10/2012 05:00 12,7 C 91 % 1010,4 hPa 0,0 mm 2,2 km/h (1 Bft) O-SO 247 0 min 0 W/m 11,3 C 12,7 C 9,0 km/h (2 Bft)
12/10/2012 05:10 12,6 C 91 % 1010,5 hPa 0,0 mm 3,2 km/h (1 Bft) O 270 0 min 0 W/m 11,2 C 12,6 C 9,0 km/h (2 Bft)
12/10/2012 05:20 12,4 C 90 % 1010,6 hPa 0,0 mm 1,4 km/h (1 Bft) O-SO 247 0 min 0 W/m 10,8 C 12,4 C 3,2 km/h (1 Bft)
12/10/2012 05:30 12,3 C 90 % 1010,8 hPa 0,0 mm 0,4 km/h (0 Bft) O-SO 247 0 min 0 W/m 10,7 C 12,3 C 3,2 km/h (1 Bft)
12/10/2012 05:40 12,2 C 90 % 1010,9 hPa 0,0 mm 2,5 km/h (1 Bft) S-SO 202 0 min 0 W/m 10,6 C 12,2 C 4,0 km/h (1 Bft)
12/10/2012 05:50 12,2 C 90 % 1011,1 hPa 0,0 mm 3,6 km/h (1 Bft) SO 225 0 min 0 W/m 10,6 C 12,2 C 6,5 km/h (2 Bft)
12/10/2012 06:00 12,1 C 90 % 1011,2 hPa 0,0 mm 2,2 km/h (1 Bft) SO 225 0 min 0 W/m 10,5 C 12,1 C 4,0 km/h (1 Bft)
12/10/2012 06:10 12,0 C 90 % 1011,2 hPa 0,0 mm 0,7 km/h (0 Bft) O 270 0 min 0 W/m 10,4 C 12,0 C 3,2 km/h (1 Bft)
12/10/2012 06:20 11,9 C 90 % 1011,4 hPa 0,0 mm 1,8 km/h (1 Bft) NO 315 0 min 0 W/m 10,3 C 11,9 C 1,8 km/h (1 Bft)
12/10/2012 06:30 11,8 C 89 % 1011,7 hPa 0,0 mm 3,2 km/h (1 Bft) O 270 0 min 0 W/m 10,0 C 11,8 C 8,6 km/h (2 Bft)
12/10/2012 06:40 11,8 C 88 % 1011,6 hPa 0,0 mm 4,0 km/h (1 Bft) O 270 0 min 0 W/m 9,9 C 11,8 C 6,5 km/h (2 Bft)
12/10/2012 06:50 11,8 C 87 % 1011,8 hPa 0,0 mm 0,0 km/h (0 Bft) O-SO 247 0 min 0 W/m 9,7 C 11,8 C 2,9 km/h (1 Bft)
12/10/2012 07:00 11,7 C 87 % 1012,1 hPa 0,0 mm 0,4 km/h (0 Bft) O-SO 247 0 min 0 W/m 9,6 C 11,7 C 3,2 km/h (1 Bft)
12/10/2012 07:10 11,6 C 87 % 1012,1 hPa 0,0 mm 1,1 km/h (1 Bft) S-SO 202 0 min 0 W/m 9,5 C 11,6 C 3,6 km/h (1 Bft)
12/10/2012 07:20 11,5 C 88 % 1012,3 hPa 0,0 mm 1,4 km/h (1 Bft) S-SO 202 0 min 0 W/m 9,6 C 11,5 C 4,3 km/h (1 Bft)
12/10/2012 07:30 11,4 C 88 % 1012,5 hPa 0,0 mm 2,2 km/h (1 Bft) SO 225 0 min 0 W/m 9,5 C 11,4 C 4,0 km/h (1 Bft)
12/10/2012 07:40 11,4 C 89 % 1012,5 hPa 0,0 mm 4,3 km/h (1 Bft) SO 225 0 min 0 W/m 9,7 C 11,4 C 4,3 km/h (1 Bft)
12/10/2012 07:50 11,4 C 90 % 1012,6 hPa 0,0 mm 0,0 km/h (0 Bft) SO 225 0 min 0 W/m 9,8 C 11,4 C 0,0 km/h (0 Bft)
12/10/2012 08:00 11,3 C 90 % 1012,7 hPa 0,0 mm 2,5 km/h (1 Bft) SO 225 0 min 0 W/m 9,7 C 11,3 C 6,5 km/h (2 Bft)
12/10/2012 08:10 11,3 C 90 % 1012,7 hPa 0,0 mm 0,0 km/h (0 Bft) SO 225 0 min 0 W/m 9,7 C 11,3 C 0,0 km/h (0 Bft)
12/10/2012 08:20 11,3 C 90 % 1012,9 hPa 0,0 mm 1,1 km/h (1 Bft) O-NO 292 0 min 0 W/m 9,7 C 11,3 C 4,0 km/h (1 Bft)
12/10/2012 08:30 11,2 C 90 % 1013,0 hPa 0,0 mm 0,0 km/h (0 Bft) SO 225 0 min 0 W/m 9,6 C 11,2 C 0,0 km/h (0 Bft)
12/10/2012 08:40 11,2 C 90 % 1013,2 hPa 0,0 mm 0,4 km/h (0 Bft) O 270 0 min 0 W/m 9,6 C 11,2 C 0,4 km/h (0 Bft)
12/10/2012 08:50 11,3 C 90 % 1013,5 hPa 0,0 mm 0,4 km/h (0 Bft) SO 225 0 min 0 W/m 9,7 C 11,3 C 3,6 km/h (1 Bft)
12/10/2012 09:00 11,3 C 90 % 1013,7 hPa 0,0 mm 0,4 km/h (0 Bft) O-SO 247 0 min 0 W/m 9,7 C 11,3 C 4,0 km/h (1 Bft)
12/10/2012 09:10 11,3 C 90 % 1013,8 hPa 0,0 mm 0,7 km/h (0 Bft) O 270 0 min 0 W/m 9,7 C 11,3 C 6,8 km/h (2 Bft)
12/10/2012 09:20 11,3 C 90 % 1014,0 hPa 0,0 mm 1,8 km/h (1 Bft) O-SO 247 0 min 0 W/m 9,7 C 11,3 C 4,3 km/h (1 Bft)
12/10/2012 09:30 11,4 C 89 % 1014,1 hPa 0,0 mm 2,2 km/h (1 Bft) O-SO 247 0 min 0 W/m 9,7 C 11,4 C 6,5 km/h (2 Bft)
12/10/2012 09:40 12,1 C 86 % 1014,4 hPa 0,0 mm 2,2 km/h (1 Bft) O-SO 247 0 min 0 W/m 9,8 C 12,1 C 6,5 km/h (2 Bft)
12/10/2012 09:50 12,9 C 84 % 1014,8 hPa 0,0 mm 5,0 km/h (1 Bft) SO 225 0 min 0 W/m 10,3 C 12,9 C 8,6 km/h (2 Bft)
12/10/2012 10:00 13,4 C 81 % 1014,9 hPa 0,0 mm 5,8 km/h (2 Bft) SO 225 0 min 0 W/m 10,2 C 13,4 C 10,8 km/h (2 Bft)
12/10/2012 10:10 13,9 C 79 % 1015,1 hPa 0,0 mm 2,2 km/h (1 Bft) O-SO 247 0 min 0 W/m 10,3 C 13,9 C 2,2 km/h (1 Bft)
12/10/2012 10:20 14,4 C 77 % 1015,4 hPa 0,0 mm 1,1 km/h (1 Bft) O-SO 247 0 min 0 W/m 10,4 C 14,4 C 5,8 km/h (2 Bft)
12/10/2012 10:30 15,0 C 75 % 1015,7 hPa 0,0 mm 2,2 km/h (1 Bft) O-NO 292 0 min 0 W/m 10,6 C 15,0 C 6,5 km/h (2 Bft)
12/10/2012 10:40 15,5 C 72 % 1015,8 hPa 0,0 mm 2,5 km/h (1 Bft) O-SO 247 0 min 0 W/m 10,5 C 15,5 C 2,5 km/h (1 Bft)
12/10/2012 10:50 15,8 C 70 % 1015,9 hPa 0,0 mm 0,7 km/h (0 Bft) O 270 0 min 0 W/m 10,3 C 15,8 C 0,7 km/h (0 Bft)
12/10/2012 11:00 15,9 C 68 % 1016,2 hPa 0,0 mm 4,7 km/h (1 Bft) SO 225 0 min 0 W/m 10,0 C 15,9 C 14,8 km/h (3 Bft)
12/10/2012 11:10 16,1 C 65 % 1016,4 hPa 0,0 mm 3,6 km/h (1 Bft) O-NO 292 0 min 0 W/m 9,5 C 16,1 C 6,5 km/h (2 Bft)
12/10/2012 11:20 16,4 C 64 % 1016,5 hPa 0,0 mm 1,8 km/h (1 Bft) O 270 0 min 0 W/m 9,6 C 16,4 C 7,2 km/h (2 Bft)
12/10/2012 11:30 16,8 C 63 % 1016,5 hPa 0,0 mm 7,6 km/h (2 Bft) NO 315 0 min 0 W/m 9,7 C 16,8 C 14,8 km/h (3 Bft)
12/10/2012 11:40 17,1 C 62 % 1016,7 hPa 0,0 mm 4,0 km/h (1 Bft) N 360 0 min 0 W/m 9,8 C 17,1 C 13,7 km/h (3 Bft)
12/10/2012 11:50 17,4 C 59 % 1016,8 hPa 0,0 mm 5,4 km/h (2 Bft) N 360 0 min 0 W/m 9,3 C 17,4 C 13,3 km/h (3 Bft)
12/10/2012 12:00 17,7 C 58 % 1016,8 hPa 0,0 mm 1,8 km/h (1 Bft) NO 315 0 min 0 W/m 9,3 C 17,7 C 6,5 km/h (2 Bft)
12/10/2012 12:10 17,9 C 54 % 1016,8 hPa 0,0 mm 2,2 km/h (1 Bft) N-NO 337 0 min 0 W/m 8,5 C 17,9 C 8,3 km/h (2 Bft)
12/10/2012 12:20 17,9 C 54 % 1017,0 hPa 0,0 mm 11,9 km/h (2 Bft) NO 315 0 min 0 W/m 8,5 C 17,9 C 18,0 km/h (3 Bft)
12/10/2012 12:30 18,1 C 53 % 1017,1 hPa 0,0 mm 3,2 km/h (1 Bft) NO 315 0 min 0 W/m 8,4 C 18,1 C 4,3 km/h (1 Bft)
12/10/2012 12:40 18,0 C 53 % 1017,2 hPa 0,0 mm 8,6 km/h (2 Bft) N 360 0 min 0 W/m 8,3 C 18,0 C 8,6 km/h (2 Bft)
12/10/2012 12:50 17,8 C 52 % 1017,3 hPa 0,0 mm 8,6 km/h (2 Bft) N 360 0 min 0 W/m 7,8 C 17,8 C 8,6 km/h (2 Bft)
12/10/2012 13:00 18,0 C 52 % 1017,3 hPa 0,0 mm 1,4 km/h (1 Bft) O 270 0 min 0 W/m 8,0 C 18,0 C 1,4 km/h (1 Bft)
12/10/2012 13:10 17,9 C 53 % 1017,4 hPa 0,0 mm 1,4 km/h (1 Bft) O 270 0 min 0 W/m 8,2 C 17,9 C 6,1 km/h (2 Bft)
12/10/2012 13:20 17,9 C 54 % 1017,5 hPa 0,0 mm 1,8 km/h (1 Bft) O-SO 247 0 min 0 W/m 8,5 C 17,9 C 4,0 km/h (1 Bft)
12/10/2012 13:30 17,9 C 54 % 1017,6 hPa 0,0 mm 2,5 km/h (1 Bft) N 360 0 min 0 W/m 8,5 C 17,9 C 2,5 km/h (1 Bft)
12/10/2012 13:40 17,8 C 53 % 1017,5 hPa 0,0 mm 1,4 km/h (1 Bft) SO 225 0 min 0 W/m 8,1 C 17,8 C 4,3 km/h (1 Bft)
12/10/2012 13:50 17,4 C 54 % 1017,5 hPa 0,0 mm 0,0 km/h (0 Bft) O 270 0 min 0 W/m 8,0 C 17,4 C 0,0 km/h (0 Bft)
12/10/2012 14:00 16,9 C 54 % 1017,3 hPa 0,0 mm 0,4 km/h (0 Bft) O-SO 247 0 min 0 W/m 7,5 C 16,9 C 0,4 km/h (0 Bft)
12/10/2012 14:10 16,8 C 55 % 1017,2 hPa 0,0 mm 6,1 km/h (2 Bft) NO 315 0 min 0 W/m 7,7 C 16,8 C 10,4 km/h (2 Bft)
12/10/2012 14:20 16,9 C 54 % 1017,1 hPa 0,0 mm 3,2 km/h (1 Bft) O-SO 247 0 min 0 W/m 7,5 C 16,9 C 7,6 km/h (2 Bft)
12/10/2012 14:30 16,9 C 53 % 1017,1 hPa 0,0 mm 1,1 km/h (1 Bft) O-NO 292 0 min 0 W/m 7,3 C 16,9 C 4,7 km/h (1 Bft)
12/10/2012 14:40 17,2 C 54 % 1017,1 hPa 0,0 mm 2,5 km/h (1 Bft) O-NO 292 0 min 0 W/m 7,8 C 17,2 C 7,2 km/h (2 Bft)
12/10/2012 14:50 17,6 C 53 % 1017,0 hPa 0,0 mm 6,5 km/h (2 Bft) O 270 0 min 0 W/m 7,9 C 17,6 C 6,5 km/h (2 Bft)
12/10/2012 15:00 17,5 C 52 % 1017,0 hPa 0,0 mm 1,8 km/h (1 Bft) O-SO 247 0 min 0 W/m 7,5 C 17,5 C 1,8 km/h (1 Bft)
12/10/2012 15:10 17,5 C 53 % 1016,9 hPa 0,0 mm 4,3 km/h (1 Bft) NO 315 0 min 0 W/m 7,8 C 17,5 C 4,3 km/h (1 Bft)
12/10/2012 15:20 17,8 C 53 % 1016,7 hPa 0,0 mm 4,7 km/h (1 Bft) NO 315 0 min 0 W/m 8,1 C 17,8 C 6,8 km/h (2 Bft)
12/10/2012 15:30 17,3 C 52 % 1016,7 hPa 0,0 mm 1,4 km/h (1 Bft) S-SO 202 0 min 0 W/m 7,3 C 17,3 C 4,0 km/h (1 Bft)
12/10/2012 15:40 16,8 C 55 % 1016,7 hPa 0,0 mm 0,0 km/h (0 Bft) SO 225 0 min 0 W/m 7,7 C 16,8 C 0,0 km/h (0 Bft)
12/10/2012 15:50 16,6 C 55 % 1016,6 hPa 0,0 mm 5,4 km/h (2 Bft) S-SO 202 0 min 0 W/m 7,5 C 16,6 C 7,9 km/h (2 Bft)
12/10/2012 16:00 16,3 C 56 % 1016,7 hPa 0,0 mm 0,0 km/h (0 Bft) S-SO 202 0 min 0 W/m 7,5 C 16,3 C 3,6 km/h (1 Bft)
12/10/2012 16:10 16,1 C 57 % 1016,8 hPa 0,0 mm 2,2 km/h (1 Bft) O 270 0 min 0 W/m 7,6 C 16,1 C 4,3 km/h (1 Bft)
12/10/2012 16:20 16,1 C 57 % 1016,7 hPa 0,0 mm 1,1 km/h (1 Bft) O-SO 247 0 min 0 W/m 7,6 C 16,1 C 1,1 km/h (1 Bft)
12/10/2012 16:30 16,0 C 56 % 1016,7 hPa 0,0 mm 5,8 km/h (2 Bft) SO 225 0 min 0 W/m 7,2 C 16,0 C 11,2 km/h (2 Bft)
12/10/2012 16:40 15,8 C 57 % 1016,5 hPa 0,0 mm 3,6 km/h (1 Bft) O-SO 247 0 min 0 W/m 7,3 C 15,8 C 11,9 km/h (2 Bft)
12/10/2012 16:50 15,9 C 57 % 1016,5 hPa 0,0 mm 2,9 km/h (1 Bft) SO 225 0 min 0 W/m 7,4 C 15,9 C 3,6 km/h (1 Bft)
12/10/2012 17:00 16,1 C 57 % 1016,5 hPa 0,0 mm 2,9 km/h (1 Bft) S-SO 202 0 min 0 W/m 7,6 C 16,1 C 6,5 km/h (2 Bft)
12/10/2012 17:10 16,1 C 58 % 1016,5 hPa 0,0 mm 0,4 km/h (0 Bft) O-SO 247 0 min 0 W/m 7,8 C 16,1 C 3,2 km/h (1 Bft)
12/10/2012 17:20 16,0 C 59 % 1016,5 hPa 0,0 mm 2,2 km/h (1 Bft) SO 225 0 min 0 W/m 8,0 C 16,0 C 6,1 km/h (2 Bft)
12/10/2012 17:30 15,8 C 59 % 1016,5 hPa 0,0 mm 7,2 km/h (2 Bft) SO 225 0 min 0 W/m 7,8 C 15,8 C 10,1 km/h (2 Bft)
12/10/2012 17:40 15,6 C 59 % 1016,6 hPa 0,0 mm 2,9 km/h (1 Bft) SO 225 0 min 0 W/m 7,6 C 15,6 C 6,8 km/h (2 Bft)
12/10/2012 17:50 15,5 C 60 % 1016,5 hPa 0,0 mm 1,4 km/h (1 Bft) O-SO 247 0 min 0 W/m 7,8 C 15,5 C 3,2 km/h (1 Bft)
12/10/2012 18:00 15,3 C 61 % 1016,6 hPa 0,0 mm 1,1 km/h (1 Bft) SO 225 0 min 0 W/m 7,8 C 15,3 C 4,3 km/h (1 Bft)
12/10/2012 18:10 14,9 C 62 % 1016,5 hPa 0,0 mm 2,9 km/h (1 Bft) SO 225 0 min 0 W/m 7,7 C 14,9 C 4,0 km/h (1 Bft)
12/10/2012 18:20 14,6 C 64 % 1016,4 hPa 0,0 mm 1,4 km/h (1 Bft) O-SO 247 0 min 0 W/m 7,9 C 14,6 C 1,4 km/h (1 Bft)
12/10/2012 18:30 14,6 C 65 % 1016,4 hPa 0,0 mm 0,0 km/h (0 Bft) O-SO 247 0 min 0 W/m 8,1 C 14,6 C 0,0 km/h (0 Bft)
12/10/2012 18:40 14,5 C 65 % 1016,3 hPa 0,0 mm 0,4 km/h (0 Bft) SO 225 0 min 0 W/m 8,0 C 14,5 C 1,4 km/h (1 Bft)
12/10/2012 18:50 14,2 C 66 % 1016,4 hPa 0,0 mm 0,0 km/h (0 Bft) SO 225 0 min 0 W/m 7,9 C 14,2 C 0,0 km/h (0 Bft)
12/10/2012 19:00 13,8 C 67 % 1016,4 hPa 0,0 mm 0,0 km/h (0 Bft) SO 225 0 min 0 W/m 7,8 C 13,8 C 0,0 km/h (0 Bft)
12/10/2012 19:10 13,4 C 68 % 1016,5 hPa 0,0 mm 0,0 km/h (0 Bft) O-SO 247 0 min 0 W/m 7,6 C 13,4 C 0,0 km/h (0 Bft)
12/10/2012 19:20 12,9 C 69 % 1016,5 hPa 0,0 mm 0,0 km/h (0 Bft) S-SO 202 0 min 0 W/m 7,4 C 12,9 C 0,0 km/h (0 Bft)
12/10/2012 19:30 12,4 C 71 % 1016,5 hPa 0,0 mm 0,0 km/h (0 Bft) S-SO 202 0 min 0 W/m 7,3 C 12,4 C 0,0 km/h (0 Bft)
12/10/2012 19:40 11,9 C 72 % 1016,5 hPa 0,0 mm 0,0 km/h (0 Bft) S-SO 202 0 min 0 W/m 7,0 C 11,9 C 0,0 km/h (0 Bft)
12/10/2012 19:50 11,4 C 74 % 1016,5 hPa 0,0 mm 0,0 km/h (0 Bft) S-SO 202 0 min 0 W/m 6,9 C 11,4 C 0,0 km/h (0 Bft)
12/10/2012 20:00 11,1 C 75 % 1016,6 hPa 0,0 mm 0,0 km/h (0 Bft) S-SO 202 0 min 0 W/m 6,8 C 11,1 C 0,0 km/h (0 Bft)
12/10/2012 20:10 10,8 C 76 % 1016,6 hPa 0,0 mm 0,0 km/h (0 Bft) S-SO 202 0 min 0 W/m 6,7 C 10,8 C 0,0 km/h (0 Bft)
12/10/2012 20:20 10,4 C 77 % 1016,6 hPa 0,0 mm 0,0 km/h (0 Bft) SO 225 0 min 0 W/m 6,5 C 10,4 C 0,0 km/h (0 Bft)
12/10/2012 20:30 10,3 C 78 % 1016,6 hPa 0,0 mm 0,0 km/h (0 Bft) S-SO 202 0 min 0 W/m 6,6 C 10,3 C 0,0 km/h (0 Bft)
12/10/2012 20:40 10,1 C 79 % 1016,6 hPa 0,0 mm 0,0 km/h (0 Bft) S-SO 202 0 min 0 W/m 6,6 C 10,1 C 0,0 km/h (0 Bft)
12/10/2012 20:50 9,9 C 80 % 1016,6 hPa 0,0 mm 0,0 km/h (0 Bft) S-SO 202 0 min 0 W/m 6,6 C 9,9 C 0,0 km/h (0 Bft)
12/10/2012 21:00 9,8 C 80 % 1016,7 hPa 0,0 mm 0,0 km/h (0 Bft) S-SO 202 0 min 0 W/m 6,5 C 9,8 C 0,0 km/h (0 Bft)
12/10/2012 21:10 9,5 C 80 % 1016,7 hPa 0,0 mm 0,0 km/h (0 Bft) S-SO 202 0 min 0 W/m 6,2 C 9,5 C 0,0 km/h (0 Bft)
12/10/2012 21:20 9,4 C 81 % 1016,8 hPa 0,0 mm 0,0 km/h (0 Bft) S-SO 202 0 min 0 W/m 6,3 C 9,4 C 0,0 km/h (0 Bft)
12/10/2012 21:30 9,1 C 81 % 1016,6 hPa 0,0 mm 0,0 km/h (0 Bft) S-SO 202 0 min 0 W/m 6,0 C 9,1 C 0,0 km/h (0 Bft)
12/10/2012 21:40 8,8 C 82 % 1016,7 hPa 0,0 mm 0,0 km/h (0 Bft) S-SO 202 0 min 0 W/m 5,9 C 8,8 C 0,0 km/h (0 Bft)
12/10/2012 21:50 8,7 C 82 % 1016,7 hPa 0,0 mm 0,0 km/h (0 Bft) S-SO 202 0 min 0 W/m 5,8 C 8,7 C 0,0 km/h (0 Bft)
12/10/2012 22:00 8,5 C 83 % 1016,8 hPa 0,0 mm 0,0 km/h (0 Bft) S-SO 202 0 min 0 W/m 5,8 C 8,5 C 0,0 km/h (0 Bft)
12/10/2012 22:10 8,4 C 84 % 1016,8 hPa 0,0 mm 0,0 km/h (0 Bft) S-SO 202 0 min 0 W/m 5,9 C 8,4 C 0,0 km/h (0 Bft)
12/10/2012 22:20 8,3 C 84 % 1016,9 hPa 0,0 mm 0,0 km/h (0 Bft) S-SO 202 0 min 0 W/m 5,8 C 8,3 C 0,0 km/h (0 Bft)
12/10/2012 22:30 8,1 C 84 % 1016,9 hPa 0,0 mm 0,0 km/h (0 Bft) SO 225 0 min 0 W/m 5,6 C 8,1 C 0,0 km/h (0 Bft)
12/10/2012 22:40 8,0 C 85 % 1016,8 hPa 0,0 mm 0,0 km/h (0 Bft) SO 225 0 min 0 W/m 5,6 C 8,0 C 0,0 km/h (0 Bft)
12/10/2012 22:50 7,9 C 85 % 1016,8 hPa 0,0 mm 0,0 km/h (0 Bft) S-SO 202 0 min 0 W/m 5,5 C 7,9 C 0,0 km/h (0 Bft)
12/10/2012 23:00 7,9 C 85 % 1016,9 hPa 0,0 mm 0,0 km/h (0 Bft) S-SO 202 0 min 0 W/m 5,5 C 7,9 C 0,0 km/h (0 Bft)
12/10/2012 23:10 7,8 C 85 % 1016,9 hPa 0,0 mm 0,0 km/h (0 Bft) SO 225 0 min 0 W/m 5,4 C 7,8 C 0,0 km/h (0 Bft)
12/10/2012 23:20 7,6 C 85 % 1016,9 hPa 0,0 mm 0,0 km/h (0 Bft) S-SO 202 0 min 0 W/m 5,2 C 7,6 C 0,0 km/h (0 Bft)
12/10/2012 23:30 7,5 C 86 % 1016,9 hPa 0,0 mm 0,0 km/h (0 Bft) S-SO 202 0 min 0 W/m 5,3 C 7,5 C 0,0 km/h (0 Bft)
12/10/2012 23:40 7,4 C 87 % 1016,8 hPa 0,0 mm 0,0 km/h (0 Bft) S-SO 202 0 min 0 W/m 5,4 C 7,4 C 0,0 km/h (0 Bft)
12/10/2012 23:50 7,4 C 87 % 1016,7 hPa 0,0 mm 0,0 km/h (0 Bft) S-SO 202 0 min 0 W/m 5,4 C 7,4 C 0,0 km/h (0 Bft)
_ Min-Heure 23:50 15:30 00:00 - 23:50 - - - - 23:20 23:50 23:50
Minimum _ 7,4 C 52 % 1008,0 hPa - 0,0 km/h (0 Bft) - - - - 5,2 C 7,4 C 0,0 km/h (0 Bft)
_ Max-Heure 12:30 00:40 13:30 23:50 12:20 - - 23:50 23:50 00:40 12:30 01:00
Maximum _ 18,1 C 93 % 1017,6 hPa 0,0 mm 11,9 km/h
NO (2 Bft)
- - 0 min 0 W/m 13,5 C 18,1 C 19,8 km/h
SO (3 Bft)
Moyenne _ 13,5 C 76 % 1014,3 hPa #0,0 mm 2,2 km/h (1 Bft) SO - #0 min. 0 W/m 9,1 C 13,5 C 4,7 km/h (1 Bft)
Saint Bonnet de Bellac- Haute Vienne - France